PDT,Max TemperatureF,Mean TemperatureF,Min TemperatureF,Max Dew PointF,MeanDew PointF,Min DewpointF,Max Humidity, Mean Humidity, Min Humidity, Max Sea Level PressureIn, Mean Sea Level PressureIn, Min Sea Level PressureIn, Max VisibilityMiles, Mean VisibilityMiles, Min VisibilityMiles, Max Wind SpeedMPH, Mean Wind SpeedMPH, Max Gust SpeedMPH,PrecipitationIn, CloudCover, Events, WindDirDegrees
2013-7-1,108,89,70,52,40,32,31,20,7,30.09,29.96,29.87,10,10,6,25,7,33,0.00,4,Rain-Thunderstorm,243
2013-7-2,106,88,71,51,44,35,40,24,9,30.11,30.01,29.92,10,6,0,51,8,60,0.00,4,,245
2013-7-3,100,82,64,55,51,44,61,35,16,30.17,29.99,29.86,10,10,10,13,7,,0.00,3,,332
2013-7-4,96,82,68,59,51,43,59,38,17,30.04,29.91,29.78,10,8,1,14,6,,0.00,1,Rain,279
2013-7-5,99,80,62,55,41,21,68,32,8,29.88,29.78,29.69,10,10,5,16,4,22,0.00,3,,239
2013-7-6,100,76,54,39,29,21,37,18,6,29.82,29.78,29.70,10,10,10,17,6,24,0.00,2,,296
2013-7-7,98,78,60,36,30,25,37,17,8,29.94,29.83,29.76,10,10,10,16,6,29,0.00,1,,308
2013-7-8,95,76,57,37,31,25,44,21,8,30.03,29.94,29.89,10,10,10,12,3,,0.00,4,,267
2013-7-9,98,77,57,36,31,23,42,21,8,30.14,30.03,29.95,10,10,9,14,4,130,0.00,1,,287
2013-7-10,97,77,59,39,32,24,39,20,9,30.14,29.99,29.89,10,10,10,15,5,21,0.00,2,,234
2013-7-11,93,82,66,60,40,24,68,28,11,30.03,29.90,29.81,10,10,9,14,5,24,0.02,5,Rain,273
2013-7-12,93,75,57,48,31,11,47,23,5,30.02,29.90,29.81,10,10,10,14,5,16,0.00,2,,236
2013-7-13,93,74,55,32,23,13,35,16,6,30.08,29.95,29.88,10,10,10,10,3,,0.00,0,,305
2013-7-14,96,75,54,34,27,21,44,18,8,30.11,29.96,29.87,10,10,10,14,3,17,0.00,0,,325
2013-7-15,98,77,57,42,34,28,42,22,10,29.99,29.84,29.71,10,10,10,10,6,,0.00,3,,264
2013-7-16,98,80,63,42,35,26,41,21,9,29.96,29.84,29.78,10,10,10,20,8,26,0.00,1,,263
2013-7-17,96,74,52,31,22,8,41,17,4,30.15,30.02,29.97,10,10,10,8,3,,0.00,0,,350
2013-7-18,100,78,55,35,20,10,28,14,4,30.14,29.99,29.90,10,10,10,8,4,,0.00,0,,261
2013-7-19,105,84,63,37,28,21,30,16,6,30.04,29.91,29.82,10,10,10,12,6,,0.00,3,,291
2013-7-20,107,86,66,39,31,25,36,15,5,29.98,29.84,29.76,10,10,10,13,5,21,0.00,1,,280
2013-7-21,108,88,68,39,30,21,32,15,5,29.88,29.82,29.76,10,10,10,14,5,23,0.00,1,,332
2013-7-22,105,85,68,45,38,26,38,20,7,29.98,29.89,29.81,10,9,2,24,8,32,0.00,5,,222
2013-7-23,93,82,73,55,46,39,50,30,17,30.11,29.99,29.93,10,10,6,17,11,22,0.00,6,Rain,234
2013-7-24,97,79,62,54,48,40,63,35,14,30.09,29.97,29.90,10,10,10,13,6,20,0.00,2,,235
2013-7-25,97,79,62,50,45,39,49,30,14,30.14,30.02,29.95,10,10,10,28,6,39,0.00,4,Rain,285
2013-7-26,100,82,64,58,51,40,65,40,13,30.17,30.07,29.96,10,10,10,28,9,39,0.01,4,Rain-Thunderstorm,199
2013-7-27,96,79,63,56,48,37,75,38,14,30.06,29.95,29.83,10,10,10,22,7,28,0.00,2,,216
2013-7-28,96,80,64,48,43,33,50,30,11,29.90,29.84,29.77,10,10,7,25,7,33,0.00,1,,202
2013-7-29,96,80,64,47,37,25,49,26,9,29.99,29.90,29.85,10,10,10,21,7,24,0.00,4,,245
2013-7-30,93,75,57,37,31,24,41,21,8,30.16,30.03,29.95,10,10,10,10,3,20,0.00,3,,359
2013-7-31,95,78,61,36,32,27,38,19,11,30.13,29.99,29.87,10,10,10,15,4,18,0.00,2,,268